ASA7006 PAPG-PAJN

Flight info

Callsign ASA7006
Flight time 0h 29m
Altitude 20000
Route ZARUT SSR
Aircraft B737/M-SDE2E3FGHIRWXY/LB1

Departure

Time 2026-05-07 06:08
Airport Petersburg James A Johnson Airport (PAPG)

Arrival

Time 2026-05-07 06:37
Airport Juneau International Airport (PAJN)
Time Latitude Longitude Altitude Speed Heading
2026-05-07 05:27 56.80570 -132.93456 121 ft 0 kts 339°
2026-05-07 06:00 56.80557 -132.93448 118 ft 4 kts 347°
2026-05-07 06:01 56.80535 -132.93446 119 ft 4 kts 34°
2026-05-07 06:01 56.80527 -132.93456 118 ft 2 kts 130°
2026-05-07 06:01 56.80531 -132.93464 117 ft 0 kts 131°
2026-05-07 06:05 56.80527 -132.93454 118 ft 3 kts 127°
2026-05-07 06:05 56.80487 -132.93404 118 ft 11 kts 158°
2026-05-07 06:06 56.80416 -132.93297 119 ft 16 kts 99°
2026-05-07 06:06 56.80439 -132.93142 123 ft 6 kts 123°
2026-05-07 06:06 56.80424 -132.93171 122 ft 4 kts 257°
2026-05-07 06:06 56.80420 -132.93195 122 ft 0 kts 250°
2026-05-07 06:07 56.80334 -132.93650 119 ft 99 kts 251°
2026-05-07 06:08 56.80018 -132.95358 321 ft 184 kts 251°
2026-05-07 06:08 56.79548 -132.97712 1308 ft 216 kts 252°
2026-05-07 06:08 56.79422 -133.00661 2190 ft 253 kts 281°
2026-05-07 06:08 56.80123 -133.03571 3547 ft 254 kts 301°
2026-05-07 06:09 56.81104 -133.06302 4637 ft 265 kts 303°
2026-05-07 06:09 56.82180 -133.09176 5585 ft 275 kts 301°
2026-05-07 06:09 56.83151 -133.12046 7282 ft 257 kts 299°
2026-05-07 06:09 56.84054 -133.14853 8566 ft 263 kts 298°
2026-05-07 06:10 56.84983 -133.17784 9773 ft 271 kts 297°
2026-05-07 06:10 56.85958 -133.20779 10809 ft 283 kts 297°
2026-05-07 06:10 56.87046 -133.24003 11149 ft 315 kts 302°
2026-05-07 06:10 56.88270 -133.27475 11919 ft 330 kts 297°
2026-05-07 06:11 56.89410 -133.31136 13118 ft 333 kts 296°
2026-05-07 06:11 56.90560 -133.34835 14339 ft 336 kts 296°
2026-05-07 06:11 56.91741 -133.38567 15450 ft 341 kts 296°
2026-05-07 06:11 56.92951 -133.42348 16550 ft 347 kts 296°
2026-05-07 06:12 56.94189 -133.46185 17672 ft 352 kts 296°
2026-05-07 06:12 56.95449 -133.50080 18681 ft 359 kts 296°
2026-05-07 06:12 56.96736 -133.54056 19497 ft 366 kts 296°
2026-05-07 06:12 56.98038 -133.58075 19969 ft 367 kts 296°
2026-05-07 06:13 56.99309 -133.62006 20286 ft 371 kts 296°
2026-05-07 06:13 57.00620 -133.66063 20312 ft 371 kts 296°
2026-05-07 06:13 57.01931 -133.70131 20315 ft 369 kts 296°
2026-05-07 06:13 57.03232 -133.74173 20326 ft 366 kts 296°
2026-05-07 06:14 57.04694 -133.78012 20324 ft 369 kts 305°
2026-05-07 06:14 57.06488 -133.81430 20321 ft 373 kts 313°
2026-05-07 06:14 57.08531 -133.84285 20339 ft 379 kts 320°
2026-05-07 06:14 57.09974 -133.86108 20346 ft 381 kts 320°
2026-05-07 06:15 57.12181 -133.88842 20332 ft 385 kts 320°
2026-05-07 06:15 57.14331 -133.91493 20325 ft 385 kts 320°
2026-05-07 06:15 57.16556 -133.94243 20316 ft 384 kts 320°
2026-05-07 06:15 57.18770 -133.96996 20315 ft 384 kts 320°
2026-05-07 06:16 57.20974 -133.99752 20318 ft 383 kts 320°
2026-05-07 06:16 57.23181 -134.02525 20318 ft 383 kts 320°
2026-05-07 06:16 57.25386 -134.05304 20316 ft 383 kts 320°
2026-05-07 06:16 57.27579 -134.08077 20315 ft 383 kts 320°
2026-05-07 06:17 57.29780 -134.10865 20312 ft 384 kts 320°
2026-05-07 06:17 57.31982 -134.13659 20308 ft 384 kts 320°
2026-05-07 06:17 57.34186 -134.16463 20347 ft 384 kts 319°
2026-05-07 06:17 57.36383 -134.19259 20313 ft 383 kts 319°
2026-05-07 06:18 57.38576 -134.22049 20300 ft 381 kts 319°
2026-05-07 06:18 57.40757 -134.24830 20309 ft 381 kts 319°
2026-05-07 06:18 57.42939 -134.27619 20298 ft 381 kts 319°
2026-05-07 06:18 57.45119 -134.30412 20285 ft 380 kts 319°
2026-05-07 06:19 57.47290 -134.33191 20288 ft 379 kts 319°
2026-05-07 06:19 57.49458 -134.35969 20288 ft 379 kts 319°
2026-05-07 06:19 57.51508 -134.38611 20274 ft 380 kts 319°
2026-05-07 06:19 57.53647 -134.41371 20303 ft 381 kts 319°
2026-05-07 06:20 57.55825 -134.44183 20294 ft 382 kts 319°
2026-05-07 06:20 57.58008 -134.47003 20305 ft 382 kts 319°
2026-05-07 06:20 57.60164 -134.49793 20284 ft 382 kts 319°
2026-05-07 06:20 57.62345 -134.52617 20286 ft 381 kts 319°
2026-05-07 06:21 57.64522 -134.55440 20282 ft 381 kts 319°
2026-05-07 06:21 57.66700 -134.58263 20270 ft 380 kts 319°
2026-05-07 06:21 57.68868 -134.61083 20262 ft 379 kts 319°
2026-05-07 06:21 57.71028 -134.63887 20264 ft 376 kts 319°
2026-05-07 06:22 57.73118 -134.66605 20180 ft 363 kts 319°
2026-05-07 06:22 57.77211 -134.71961 19226 ft 352 kts 318°
2026-05-07 06:22 57.79197 -134.74562 18669 ft 345 kts 318°
2026-05-07 06:23 57.81144 -134.77117 18057 ft 338 kts 318°
2026-05-07 06:23 57.83054 -134.79626 17491 ft 332 kts 318°
2026-05-07 06:23 57.84913 -134.82074 16819 ft 328 kts 318°
2026-05-07 06:23 57.86711 -134.84449 16180 ft 326 kts 318°
2026-05-07 06:24 57.88552 -134.86879 15607 ft 321 kts 318°
2026-05-07 06:24 57.90364 -134.89273 15061 ft 316 kts 318°
2026-05-07 06:24 57.92150 -134.91635 14528 ft 312 kts 318°
2026-05-07 06:24 57.93909 -134.93976 14025 ft 307 kts 317°
2026-05-07 06:25 57.95590 -134.96242 13426 ft 305 kts 319°
2026-05-07 06:25 57.97304 -134.98505 12923 ft 300 kts 319°
2026-05-07 06:25 57.99026 -135.00783 12421 ft 305 kts 319°
2026-05-07 06:25 58.00785 -135.03126 11894 ft 313 kts 320°
2026-05-07 06:26 58.02569 -135.05502 11346 ft 313 kts 320°
2026-05-07 06:26 58.04312 -135.07815 10801 ft 307 kts 320°
2026-05-07 06:26 58.06038 -135.10113 10374 ft 299 kts 320°
2026-05-07 06:26 58.07680 -135.12301 10283 ft 280 kts 320°
2026-05-07 06:27 58.09228 -135.14369 10147 ft 265 kts 320°
2026-05-07 06:27 58.10692 -135.16329 10013 ft 251 kts 319°
2026-05-07 06:27 58.12047 -135.18147 9752 ft 245 kts 319°
2026-05-07 06:27 58.13419 -135.19992 9456 ft 241 kts 319°
2026-05-07 06:28 58.14800 -135.21855 9123 ft 248 kts 320°
2026-05-07 06:28 58.16237 -135.23764 8770 ft 258 kts 324°
2026-05-07 06:28 58.17973 -135.24778 8395 ft 267 kts 355°
2026-05-07 06:28 58.19787 -135.24064 8088 ft 270 kts 20°
2026-05-07 06:29 58.21464 -135.22502 7740 ft 267 kts 25°
2026-05-07 06:29 58.23094 -135.20858 7394 ft 264 kts 25°
2026-05-07 06:29 58.24706 -135.19226 7054 ft 261 kts 25°
2026-05-07 06:29 58.26301 -135.17624 6722 ft 258 kts 25°
2026-05-07 06:30 58.27847 -135.16087 6381 ft 256 kts 25°
2026-05-07 06:30 58.29450 -135.14506 6126 ft 249 kts 25°
2026-05-07 06:30 58.30947 -135.13030 6001 ft 237 kts 25°
2026-05-07 06:30 58.32362 -135.11629 5932 ft 221 kts 25°
2026-05-07 06:31 58.33680 -135.10326 5814 ft 206 kts 25°
2026-05-07 06:31 58.34963 -135.09052 5754 ft 209 kts 28°
2026-05-07 06:31 58.35962 -135.07098 5513 ft 214 kts 67°
2026-05-07 06:31 58.36149 -135.04395 5288 ft 203 kts 92°
2026-05-07 06:32 58.36128 -135.01751 4967 ft 201 kts 92°
2026-05-07 06:32 58.36108 -134.99100 4639 ft 199 kts 92°
2026-05-07 06:32 58.36091 -134.96471 4325 ft 198 kts 92°
2026-05-07 06:32 58.36075 -134.93864 4021 ft 196 kts 92°
2026-05-07 06:33 58.36061 -134.91282 3716 ft 193 kts 93°
2026-05-07 06:33 58.36047 -134.88752 3419 ft 188 kts 93°
2026-05-07 06:33 58.36028 -134.86279 3125 ft 184 kts 93°
2026-05-07 06:33 58.36009 -134.83867 2850 ft 180 kts 94°
2026-05-07 06:34 58.35990 -134.81500 2571 ft 177 kts 94°
2026-05-07 06:34 58.35971 -134.79219 2346 ft 171 kts 93°
2026-05-07 06:34 58.35976 -134.76978 2106 ft 167 kts 92°
2026-05-07 06:34 58.35958 -134.74837 1863 ft 156 kts 94°
2026-05-07 06:35 58.35931 -134.72850 1660 ft 142 kts 94°
2026-05-07 06:35 58.35906 -134.71046 1423 ft 131 kts 94°
2026-05-07 06:35 58.35881 -134.69332 1229 ft 129 kts 95°
2026-05-07 06:35 58.35859 -134.67603 1020 ft 135 kts 93°
2026-05-07 06:36 58.35959 -134.65857 894 ft 132 kts 83°
2026-05-07 06:36 58.36071 -134.64354 719 ft 143 kts 86°
2026-05-07 06:36 58.36093 -134.62484 529 ft 142 kts 99°
2026-05-07 06:36 58.35928 -134.60675 193 ft 132 kts 106°
2026-05-07 06:37 58.35694 -134.59062 41 ft 123 kts 104°
2026-05-07 06:37 58.35498 -134.57651 35 ft 93 kts 104°
2026-05-07 06:37 58.35381 -134.56813 33 ft 61 kts 104°
2026-05-07 06:37 58.35298 -134.56209 34 ft 42 kts 105°
2026-05-07 06:38 58.35225 -134.55690 32 ft 39 kts 105°
2026-05-07 06:38 58.35190 -134.55342 33 ft 17 kts 58°
2026-05-07 06:38 58.35286 -134.55333 33 ft 12 kts 295°
2026-05-07 06:38 58.35308 -134.55480 33 ft 11 kts 284°
2026-05-07 06:39 58.35330 -134.55642 32 ft 15 kts 285°
2026-05-07 06:39 58.35361 -134.55864 32 ft 20 kts 285°
2026-05-07 06:39 58.35399 -134.56130 31 ft 22 kts 285°
2026-05-07 06:39 58.35434 -134.56398 33 ft 21 kts 286°
2026-05-07 06:40 58.35473 -134.56665 32 ft 21 kts 283°
2026-05-07 06:40 58.35508 -134.56924 33 ft 20 kts 284°
2026-05-07 06:40 58.35543 -134.57171 32 ft 19 kts 284°
2026-05-07 06:40 58.35577 -134.57418 33 ft 19 kts 285°
2026-05-07 06:41 58.35609 -134.57649 33 ft 18 kts 285°
2026-05-07 06:41 58.35630 -134.57800 31 ft 18 kts 285°
2026-05-07 06:41 58.35659 -134.58003 32 ft 17 kts 285°
2026-05-07 06:41 58.35689 -134.58215 31 ft 16 kts 285°
2026-05-07 06:42 58.35717 -134.58416 31 ft 16 kts 285°
2026-05-07 06:42 58.35756 -134.58600 33 ft 15 kts 318°
2026-05-07 06:42 58.35819 -134.58692 32 ft 7 kts 315°
2026-05-07 06:42 58.35864 -134.58709 33 ft 8 kts 359°
2026-05-07 06:43 58.35882 -134.58709 33 ft 0 kts 360°
2026-05-07 06:43 58.35886 -134.58709 31 ft 0 kts